RADFXSAT-2 (AO-109) (47311 NORAD) Tracking and Keplerian Element Data

This shows tracking and keplerian element data for the satellite.

Feedback or suggestion? Click here.




ElementValue
Catalog47311
NameRADFXSAT-2 (AO-109)
Epoch Orbit640
Epoch Day60.18887552
Epoch Year2021
RAAN336.3665
Inclination60.6858
Eccentricity0.0018513
Argument of Perigee332.5556
Mean Anonmoly27.455
Mean Motion15.21290945
Decay Rate1.12E-05
L11 47311U 21002C 21060.18887552 .00001120 00000-0 61522-4 0 9998
L22 47311 60.6858 336.3665 0018513 332.5556 27.4550 15.21290945 6401

Live tracking and technical data element details for RADFXSAT-2 (AO-109) (NORAD 47311). RADFXSAT-2 (AO-109) can be tracked NOW for your location showing map with azimuth and elevation plus other details from your city location.

Track the satellite on the map from your city or location and see movement details for azimuth, elevation, latitude, longitude, range, height, and movement on the map or in text.







IsCatalogInMostPopularTable: catalog: 47311, numindb: 20
Update: records affected: 1



GetName: 47311 RADFXSAT-2 (AO-109)

Hit Count: updated at: Mon, 01 Mar 2021 23:05:57 GMT